JA3VQW-13 Hirakata JP current weather conditions

sailwx.info

Wind from 286

Air temperature 29.4° C
Dewpoint 19.4° C

Last reported at 2014-Jul-26 16:36 UTC.
Time now 2014-Jul-26 17:17 UTC

Location: N 34°48' E 135°40'.
View on Google Maps.

See reports from other nearby stations

  
Tides and Currents Weather Stations Pressure Air Temp Water Temp Dewpoint Dewpoint Depression Visibility Wind Speed Wind Dir Waves Ship Positions
date/time (UTC)wind fromknots sea level pressurealtimeterstation pressurevisibilityair tempwater tempwave heightnotes
2014-Jul-26 16:36 286 29.4
2014-Jul-26 16:06 279 1 gusting 4 29.4
2014-Jul-26 15:36 190 29.4
2014-Jul-26 15:06 135 29.4
2014-Jul-26 14:36 292 1 gusting 1 30.0
2014-Jul-26 14:23 315 30.0
2014-Jul-26 14:08 264 30.0
2014-Jul-26 14:06 270 30.0
2014-Jul-26 13:36 274 1 gusting 5 30.0
2014-Jul-26 13:23 227 2 gusting 5 30.0
2014-Jul-26 13:06 194 2 gusting 5 30.0
2014-Jul-26 12:36 290 30.0
2014-Jul-26 12:06 229 1 gusting 5 30.0
2014-Jul-26 11:36 280 4 gusting 4 30.0
2014-Jul-26 11:06 272 2 gusting 4 30.6
2014-Jul-26 10:53 271 1 gusting 2 30.6
2014-Jul-26 10:36 306 1 gusting 1 31.1
2014-Jul-26 10:06 289 2 gusting 4 31.1
2014-Jul-26 09:36 307 4 gusting 2 32.8
2014-Jul-26 09:06 226 4 gusting 5 34.4
2014-Jul-26 08:36 237 4 gusting 4 35.0
2014-Jul-26 08:06 245 1 gusting 4 35.6
2014-Jul-26 07:36 251 1 gusting 4 36.1
2014-Jul-26 07:06 207 4 gusting 6 36.7
2014-Jul-26 06:36 261 1 gusting 5 37.2
2014-Jul-26 06:06 177 4 gusting 5 37.8
2014-Jul-26 05:36 201 37.8
2014-Jul-26 05:23 171 2 gusting 5 37.2
2014-Jul-26 05:06 201 1 gusting 6 36.7
2014-Jul-26 04:36 252 2 gusting 4 37.2
2014-Jul-26 04:06 264 1 gusting 2 36.1
2014-Jul-26 03:36 280 5 gusting 5 36.1
2014-Jul-26 03:06 296 5 gusting 5 35.6
2014-Jul-26 02:53 294 6 gusting 10 35.6
2014-Jul-26 02:36 283 4 gusting 6 35.0
2014-Jul-26 02:06 292 4 gusting 5 33.9
2014-Jul-26 01:53 166 1 gusting 1 33.9
2014-Jul-26 01:36 301 4 gusting 5 33.3
2014-Jul-26 01:06 276 0 gusting 5 33.9
2014-Jul-26 00:36 299 2 gusting 5 33.3
2014-Jul-26 00:06 090 32.8
2014-Jul-25 23:36 112 32.2
2014-Jul-25 23:06 270 31.7
2014-Jul-25 22:36 135 31.1
2014-Jul-25 22:06 135 30.0
2014-Jul-25 21:38 135 29.4
2014-Jul-25 21:36 135 29.4
2014-Jul-25 21:06 135 28.9
2014-Jul-25 20:36 135 28.3
2014-Jul-25 20:06 135 28.3
2014-Jul-25 19:36 135 28.3
2014-Jul-25 19:08 135 28.9
2014-Jul-25 19:06 135 28.9
2014-Jul-25 18:53 135 28.3
2014-Jul-25 18:36 135 28.3
2014-Jul-25 18:08 135 28.3
2014-Jul-25 18:06 135 28.9
2014-Jul-25 17:38 135 28.9
2014-Jul-25 17:36 135 28.9
2014-Jul-25 17:06 165 29.4
2014-Jul-25 16:53 135 29.4
2014-Jul-25 16:36 180 30.0
2014-Jul-25 16:06 292 30.6
2014-Jul-25 15:38 292 30.6
2014-Jul-25 15:36 292 30.6
2014-Jul-25 15:23 180 30.6
2014-Jul-25 15:08 270 30.6
2014-Jul-25 15:06 144 30.6
2014-Jul-25 14:36 276 31.1
2014-Jul-25 14:06 284 1 gusting 4 31.1
2014-Jul-25 13:36 298 2 gusting 5 31.1
2014-Jul-25 13:06 308 2 gusting 4 31.7
2014-Jul-25 12:36 308 2 gusting 5 31.7
2014-Jul-25 12:06 282 4 gusting 6 32.2
2014-Jul-25 11:53 285 4 gusting 5 32.8
2014-Jul-25 11:36 288 4 gusting 5 32.8